Wind_Speed
17 17 18 20 20 21 23 24 26 28 29 31 33 34 35 36 37 38 39 39 37 37 39 41 44 44 42 40 36 39 36 33 30 28 28 24 23 26 31 39 43 43 38 36 37 44 44
13 15 17 20 23 26 27 28 30 31 33 34 35 35 35 36 37 38 39 40 40 38 37 38 38 39 40 37 39 42 39 37 34 33 31 29 26 26 26 31 40 42 40 39 39 42 46
14 16 19 22 26 27 28 30 33 35 37 38 38 39 39 38 38 38 39 40 41 41 39 37 36 36 33 28 36 41 40 39 40 37 35 33 30 28 26 27 32 39 42 42 42 41 46
15 19 22 25 27 30 32 35 37 40 43 44 44 45 46 44 44 44 43 41 41 43 43 41 38 39 35 33 33 33 39 40 41 41 40 36 34 32 29 27 28 33 38 43 43 42 43
20 23 25 27 28 30 33 37 40 43 46 47 48 48 50 49 50 51 50 49 45 43 44 45 42 40 38 35 35 34 34 38 42 43 44 40 37 35 32 29 27 28 30 37 42 43 44
23 26 27 29 30 32 35 38 41 44 47 49 50 50 51 53 55 56 53 53 49 47 45 45 47 44 43 41 37 36 35 37 39 43 44 43 41 37 35 31 28 26 27 30 39 44 44
26 28 29 31 32 35 37 40 43 46 48 49 49 51 52 52 55 54 52 56 54 48 48 46 46 47 46 44 41 39 38 38 40 41 42 41 42 37 32 31 34 33 29 26 32 42 45
27 29 31 33 36 37 39 43 46 48 49 50 49 51 52 54 53 53 57 60 57 56 46 50 46 45 47 46 44 41 40 41 40 39 38 41 40 34 33 35 33 32 31 25 25 36 42
29 32 34 35 38 40 43 46 48 51 51 53 53 54 53 55 56 58 61 60 59 55 51 43 47 44 45 48 45 43 43 42 41 41 39 38 37 37 36 36 35 33 32 27 25 29 39
32 35 36 37 39 43 47 52 53 54 56 57 55 56 56 59 58 63 69 67 63 60 53 49 43 42 42 46 46 46 45 45 44 42 41 41 41 40 40 39 37 35 32 31 26 26 31
35 37 37 38 42 46 51 55 57 59 59 59 57 58 60 63 64 73 69 57 51 52 49 48 45 41 40 44 48 49 48 49 47 43 44 42 39 38 41 39 38 34 36 35 31 29 30
39 39 40 42 44 49 54 58 60 62 61 61 60 63 64 67 74 71 57 42 34 34 33 35 40 39 38 40 47 50 50 51 50 48 48 46 42 41 39 40 38 37 37 34 32 30 31
41 43 44 44 46 51 55 59 62 64 63 63 63 67 68 73 72 60 43 32 26 24 23 28 31 37 38 37 43 49 51 53 52 50 50 49 44 42 42 42 41 41 38 35 35 34 33
44 47 47 46 48 53 55 60 63 65 65 64 65 69 71 75 70 49 34 26 22 20 17 23 26 30 36 37 41 45 49 52 52 50 50 50 48 45 45 44 43 41 39 37 36 35 32
46 47 46 48 50 53 56 61 63 65 66 65 66 69 73 72 64 45 30 22 19 16 16 19 25 15 29 35 40 45 47 51 53 52 51 50 49 47 46 45 44 44 43 39 38 38 34
44 46 47 49 51 54 57 62 64 65 65 65 66 68 71 70 57 40 27 22 17 14 15 18 23 30 23 26 34 40 47 49 52 52 52 50 48 48 49 47 47 45 41 41 43 42 40
44 46 48 49 53 55 60 62 65 66 65 65 65 67 68 65 52 37 26 20 17 14 17 18 21 26 27 22 29 39 41 46 50 50 50 49 47 46 48 48 48 48 47 46 44 44 44
45 47 49 51 54 57 61 64 65 66 64 64 66 67 69 62 45 36 25 20 18 18 17 22 26 25 25 36 24 28 39 42 44 46 48 46 45 44 47 47 46 47 46 46 48 49 47
47 48 51 53 56 58 62 64 65 65 65 64 66 67 63 56 42 34 27 20 18 19 20 22 21 23 26 29 39 33 30 38 44 45 43 43 44 42 43 44 43 44 46 47 48 45 46
49 51 54 56 58 60 63 64 65 65 63 64 65 63 58 53 38 32 30 23 20 20 20 22 25 24 23 25 32 41 42 36 39 42 46 46 45 43 45 47 47 46 47 46 45 45 46
51 53 55 58 60 62 63 63 63 63 62 63 65 63 57 47 36 30 28 25 20 20 21 20 22 25 26 25 24 31 42 48 45 42 43 42 40 42 46 47 47 48 47 48 48 49 46
53 55 57 59 61 61 62 63 62 60 60 61 62 59 50 43 39 32 29 26 23 22 20 23 22 24 26 27 28 27 29 39 46 52 50 48 47 44 42 45 49 49 49 51 50 50 47
55 57 59 60 61 60 62 62 62 59 58 59 61 55 45 40 38 33 29 26 24 21 22 22 22 23 27 29 29 29 30 31 34 40 50 54 55 55 54 50 51 51 51 52 52 52 52
57 59 60 62 62 60 60 60 60 59 58 58 59 57 47 35 34 33 29 27 27 25 22 21 25 25 27 29 32 33 33 33 34 36 36 39 45 50 53 53 56 58 55 54 54 54 55
58 60 61 62 62 60 58 59 59 58 59 57 57 57 51 37 31 31 28 28 27 29 29 28 29 27 27 29 31 33 33 36 36 37 38 40 41 42 45 48 50 51 55 55 53 55 56
59 62 63 61 61 59 58 57 57 58 58 58 56 54 50 42 33 32 31 31 28 28 29 28 32 34 34 32 30 29 30 33 35 39 39 41 42 44 45 47 48 48 50 51 53 58 59
60 61 62 61 60 59 59 57 57 58 57 59 57 53 49 44 33 34 33 33 32 31 30 33 34 34 36 38 37 36 34 32 31 33 37 40 43 45 47 50 51 48 50 53 54 55 55
61 60 63 61 59 58 58 57 57 58 57 60 58 53 50 45 34 37 38 37 40 39 37 35 37 37 38 39 42 42 42 41 37 32 34 38 43 45 49 51 52 48 48 52 52 54 55
59 61 62 59 59 58 57 56 57 58 59 59 59 52 48 46 41 41 42 45 46 46 41 37 34 37 40 41 40 42 44 42 41 40 41 41 40 42 45 47 48 51 50 51 54 56 56
Wind_Direction
316 318 318 320 322 323 322 323 324 324 324 322 318 313 308 302 295 288 284 284 284 282 273 264 260 259 258 257 256 251 249 247 248 246 245 246 251 254 247 241 237 231 225 229 226 226 226
329 330 333 338 340 341 339 336 333 330 326 325 322 319 316 315 311 301 290 283 282 281 278 270 263 259 257 255 250 250 247 246 247 244 242 241 243 253 257 247 240 237 229 223 228 227 226
338 341 343 340 339 337 335 332 329 327 325 323 322 320 317 315 313 308 303 293 283 277 276 272 265 258 253 252 248 249 247 244 244 244 241 241 240 244 253 256 246 240 234 225 224 227 227
337 333 332 332 332 333 333 332 330 327 323 320 320 318 317 318 315 311 306 300 292 281 272 269 265 257 251 249 250 247 243 242 242 240 240 239 240 239 243 252 250 246 236 231 228 227 228
325 326 329 332 333 333 332 330 328 327 326 323 319 315 312 311 311 310 307 303 295 288 277 267 262 257 249 246 248 247 245 243 241 241 241 241 241 239 240 243 250 249 245 234 232 235 228
326 328 331 332 332 332 329 328 328 327 325 322 319 315 311 308 307 305 302 300 296 287 282 271 261 256 251 247 246 246 243 244 243 241 241 240 240 238 237 242 247 253 248 236 228 234 235
327 332 332 335 335 333 332 330 328 327 325 323 319 315 311 309 308 304 299 297 291 285 278 275 266 253 250 245 243 241 239 240 242 241 240 241 239 236 238 237 238 245 252 248 234 229 235
331 332 331 334 338 335 333 331 329 329 327 324 320 320 316 313 308 306 304 298 290 286 276 272 267 257 248 244 240 239 236 237 242 243 240 238 237 232 234 236 238 242 249 249 239 233 233
330 329 330 336 337 336 334 332 333 332 330 326 322 321 318 317 311 308 307 297 287 280 274 262 262 256 248 242 239 236 233 232 234 236 237 238 236 231 233 236 237 237 240 243 237 234 232
327 325 327 333 330 333 334 334 334 333 332 331 326 324 323 321 314 311 309 297 282 274 267 261 254 252 247 242 237 232 230 228 229 232 234 234 232 228 229 233 235 234 233 238 238 235 237
323 323 322 324 328 331 331 332 334 333 332 332 328 326 326 324 319 320 314 300 284 271 264 256 254 249 244 239 235 231 226 225 226 228 232 236 233 232 233 233 232 230 230 233 235 235 236
322 320 320 322 323 326 329 331 332 333 333 332 330 330 330 330 331 329 315 301 289 280 263 246 242 243 241 233 234 230 227 226 224 225 227 230 228 228 228 225 227 228 230 231 234 234 236
319 319 319 321 324 326 329 332 333 334 335 334 333 332 334 334 337 331 315 307 293 273 264 237 230 228 230 226 231 229 227 224 224 224 226 228 228 228 227 225 227 229 229 230 233 232 234
317 318 320 322 325 327 328 331 334 335 336 335 335 335 337 342 342 332 318 307 291 282 254 242 233 219 218 222 227 228 224 226 226 227 227 228 229 229 229 228 232 232 232 236 238 240 238
318 320 322 323 325 328 331 333 334 336 337 336 338 339 341 347 342 333 323 304 296 283 258 239 225 234 225 231 230 225 224 222 225 225 226 228 229 228 229 229 231 230 229 232 235 239 237
321 323 324 326 328 329 332 334 335 337 337 337 340 342 346 349 343 337 324 309 301 285 258 240 232 234 225 227 228 228 224 221 223 224 226 226 227 227 229 229 230 232 232 230 233 236 236
323 326 327 328 329 330 331 334 336 337 337 338 342 345 349 351 343 341 328 314 303 288 258 246 246 243 243 227 220 220 226 226 222 223 224 225 224 226 226 226 229 231 231 231 232 237 242
325 326 328 328 328 331 333 335 335 337 338 340 342 346 350 350 343 342 335 314 300 282 267 259 253 252 247 232 218 216 217 223 224 227 224 225 224 225 228 229 228 230 232 234 236 238 239
325 325 327 328 329 331 333 334 335 337 338 340 343 348 352 348 341 342 342 319 301 289 277 267 268 255 247 241 237 225 218 216 223 226 228 226 224 223 223 226 226 226 227 229 231 233 236
323 323 325 327 329 330 332 333 335 337 339 341 345 349 349 347 340 341 342 332 308 291 284 274 271 268 254 247 243 240 232 225 220 222 228 231 230 225 226 228 229 229 228 229 229 230 233
321 324 326 326 327 329 331 333 335 337 338 341 346 348 348 342 336 336 336 336 320 299 288 283 274 270 271 262 247 243 241 240 236 230 225 223 223 226 228 227 228 229 231 232 234 234 232
323 324 324 324 325 327 329 332 334 336 338 341 345 346 344 339 333 335 330 333 331 316 297 286 279 274 269 269 265 258 244 242 245 243 242 238 236 227 220 227 231 228 229 231 232 233 235
321 321 322 322 323 325 327 331 334 335 336 339 342 344 339 335 329 331 326 321 323 322 311 297 284 277 273 269 268 265 262 256 246 243 244 245 246 245 243 240 235 231 231 234 236 236 237
321 320 319 320 322 324 325 328 332 333 334 337 339 342 339 333 327 325 324 318 314 312 309 303 295 287 275 270 267 268 266 261 259 258 252 247 244 243 244 241 240 240 238 237 238 239 238
319 319 317 318 321 323 323 326 329 330 331 335 337 338 339 334 323 320 318 313 308 304 304 304 297 292 287 281 274 267 266 265 264 259 254 255 254 251 250 247 244 242 241 238 238 241 241
317 318 318 317 320 322 322 324 326 328 330 332 333 334 332 331 324 318 314 307 303 298 296 293 291 294 294 291 287 280 270 262 261 261 260 258 255 253 252 251 249 245 244 242 241 241 240
316 317 317 317 320 321 320 322 323 326 328 329 329 329 328 326 321 316 310 307 302 297 291 289 284 283 284 285 285 283 280 276 268 261 260 261 257 255 253 252 249 249 248 247 246 244 241
316 316 317 316 318 319 320 321 322 325 326 325 326 324 323 322 319 310 308 306 302 301 294 288 285 282 279 277 278 278 276 274 270 264 261 258 257 255 254 255 253 251 250 251 251 249 246
314 314 314 315 316 318 319 320 321 323 323 321 322 320 318 314 317 309 310 304 302 296 295 294 292 287 286 281 276 272 272 271 270 269 264 262 262 260 256 255 254 253 250 249 249 248 249
Height
5790 5788 5787 5784 5782 5779 5777 5774 5771 5768 5765 5762 5758 5755 5751 5748 5745 5742 5739 5737 5735 5734 5733 5733 5735 5736 5738 5741 5745 5743 5746 5749 5750 5752 5753 5754 5755 5755 5757 5760 5764 5768 5775 5780 5783 5784 5789
5788 5786 5784 5782 5779 5776 5773 5770 5767 5764 5760 5756 5752 5748 5745 5741 5737 5734 5732 5729 5727 5725 5724 5724 5724 5725 5727 5732 5732 5732 5737 5740 5742 5744 5746 5747 5749 5750 5750 5752 5756 5761 5767 5771 5774 5777 5780
5786 5784 5781 5778 5775 5772 5769 5766 5762 5758 5754 5750 5746 5742 5738 5734 5730 5726 5723 5721 5719 5717 5715 5715 5715 5715 5719 5722 5721 5723 5727 5730 5732 5735 5738 5739 5742 5744 5746 5746 5748 5752 5758 5762 5766 5769 5773
5784 5781 5778 5775 5772 5768 5764 5760 5756 5752 5748 5743 5739 5734 5729 5725 5721 5718 5714 5712 5710 5708 5706 5706 5706 5707 5709 5710 5712 5714 5716 5719 5722 5726 5728 5731 5734 5736 5739 5740 5742 5744 5749 5754 5758 5760 5764
5781 5778 5774 5771 5768 5764 5760 5755 5751 5746 5741 5735 5731 5725 5720 5716 5711 5708 5703 5700 5699 5697 5696 5695 5696 5696 5700 5702 5702 5704 5708 5709 5711 5715 5718 5722 5726 5729 5732 5734 5736 5737 5741 5746 5750 5752 5755
5777 5774 5771 5767 5763 5759 5755 5750 5744 5739 5733 5727 5721 5715 5710 5705 5700 5696 5691 5687 5685 5684 5683 5682 5683 5686 5687 5691 5693 5694 5697 5698 5701 5704 5708 5712 5717 5721 5724 5727 5730 5730 5731 5735 5740 5744 5748
5774 5771 5767 5763 5759 5753 5748 5743 5737 5732 5726 5720 5713 5706 5700 5694 5688 5682 5679 5673 5671 5670 5669 5669 5670 5672 5673 5676 5681 5683 5685 5687 5690 5694 5698 5703 5707 5714 5719 5718 5720 5723 5725 5729 5732 5735 5739
5770 5766 5762 5758 5753 5748 5742 5737 5730 5724 5718 5711 5704 5697 5689 5682 5675 5668 5662 5657 5653 5650 5656 5650 5654 5658 5658 5661 5667 5671 5674 5677 5681 5686 5690 5693 5698 5706 5706 5708 5713 5717 5719 5722 5725 5728 5731
5766 5762 5757 5752 5747 5741 5736 5730 5723 5716 5708 5701 5693 5686 5678 5669 5661 5653 5645 5638 5633 5630 5632 5638 5635 5640 5643 5648 5653 5659 5663 5666 5671 5675 5679 5684 5691 5694 5697 5701 5705 5709 5712 5715 5719 5721 5723
5761 5757 5752 5747 5741 5735 5729 5722 5714 5706 5697 5689 5681 5673 5665 5656 5648 5636 5624 5614 5608 5607 5611 5616 5619 5623 5628 5633 5640 5644 5649 5654 5659 5665 5670 5672 5676 5682 5687 5691 5696 5701 5705 5707 5711 5714 5716
5757 5751 5746 5741 5735 5728 5721 5714 5706 5697 5687 5678 5669 5660 5651 5638 5629 5615 5598 5584 5580 5581 5588 5594 5600 5607 5613 5618 5624 5629 5635 5640 5647 5653 5659 5664 5669 5674 5678 5685 5688 5694 5695 5699 5703 5707 5709
5751 5745 5739 5733 5727 5720 5713 5705 5696 5687 5676 5666 5657 5648 5637 5624 5605 5592 5575 5567 5565 5568 5570 5576 5582 5591 5598 5602 5609 5615 5622 5629 5634 5640 5646 5651 5657 5663 5669 5674 5679 5683 5687 5692 5695 5699 5703
5744 5739 5733 5726 5719 5712 5705 5696 5687 5677 5666 5655 5645 5633 5622 5608 5594 5575 5563 5558 5558 5558 5563 5566 5570 5577 5582 5588 5594 5602 5609 5614 5621 5629 5634 5640 5647 5653 5658 5664 5667 5673 5678 5683 5686 5689 5695
5737 5731 5725 5718 5711 5704 5697 5688 5678 5668 5657 5644 5633 5621 5608 5594 5579 5565 5556 5553 5552 5553 5556 5560 5563 5567 5570 5576 5581 5589 5596 5603 5611 5618 5624 5630 5637 5642 5648 5654 5660 5665 5670 5675 5677 5681 5688
5729 5723 5717 5710 5703 5695 5688 5679 5669 5658 5647 5636 5623 5612 5598 5584 5568 5557 5551 5549 5549 5550 5552 5554 5559 5564 5568 5571 5575 5578 5583 5591 5597 5605 5613 5619 5624 5631 5636 5643 5648 5653 5658 5666 5669 5671 5676
5721 5715 5709 5702 5695 5687 5679 5670 5660 5649 5638 5627 5616 5603 5591 5578 5563 5553 5548 5546 5546 5547 5548 5550 5553 5555 5559 5564 5568 5570 5571 5578 5584 5592 5599 5607 5613 5619 5625 5631 5636 5642 5651 5655 5657 5660 5665
5714 5708 5701 5694 5686 5679 5670 5660 5650 5639 5628 5618 5608 5595 5583 5568 5558 5550 5545 5544 5543 5544 5544 5546 5547 5549 5552 5554 5557 5560 5564 5568 5573 5580 5587 5594 5602 5608 5613 5618 5624 5630 5635 5642 5648 5652 5655
5706 5699 5692 5685 5678 5670 5660 5651 5641 5631 5620 5607 5599 5589 5577 5564 5556 5548 5543 5540 5540 5539 5539 5539 5541 5542 5543 5544 5548 5551 5555 5558 5564 5569 5575 5581 5589 5595 5600 5606 5613 5619 5625 5631 5636 5642 5646
5698 5691 5684 5677 5669 5661 5651 5641 5631 5621 5611 5601 5591 5579 5569 5557 5550 5545 5540 5538 5536 5535 5534 5534 5534 5536 5537 5539 5540 5542 5546 5550 5554 5560 5565 5571 5576 5583 5589 5595 5600 5606 5612 5618 5624 5630 5633
5689 5683 5676 5668 5660 5651 5643 5633 5623 5613 5602 5593 5584 5575 5563 5555 5548 5542 5537 5534 5531 5530 5529 5529 5529 5529 5531 5532 5533 5534 5538 5542 5546 5550 5554 5559 5565 5571 5578 5583 5590 5595 5600 5606 5612 5618 5621
5681 5674 5666 5658 5650 5642 5633 5624 5614 5605 5596 5586 5575 5566 5557 5551 5544 5540 5535 5531 5528 5526 5525 5524 5524 5523 5523 5525 5526 5528 5530 5532 5535 5539 5544 5549 5554 5559 5565 5570 5576 5582 5588 5594 5599 5604 5610
5672 5664 5656 5649 5641 5632 5624 5615 5607 5598 5588 5580 5570 5562 5551 5544 5538 5536 5531 5528 5524 5521 5521 5519 5519 5517 5517 5517 5518 5520 5522 5524 5525 5529 5532 5537 5543 5548 5553 5557 5563 5569 5575 5581 5586 5591 5597
5662 5654 5647 5639 5630 5622 5614 5606 5598 5591 5582 5574 5566 5557 5548 5541 5534 5531 5528 5524 5521 5518 5515 5512 5513 5512 5510 5510 5511 5512 5514 5515 5517 5519 5521 5526 5528 5533 5539 5544 5549 5554 5561 5568 5572 5578 5584
5652 5644 5636 5628 5620 5612 5604 5596 5588 5581 5575 5567 5559 5553 5546 5539 5531 5526 5522 5518 5515 5512 5510 5508 5505 5503 5503 5502 5503 5504 5504 5506 5508 5510 5512 5514 5516 5519 5523 5529 5530 5539 5548 5553 5557 5563 5569
5642 5634 5626 5618 5610 5602 5594 5587 5579 5571 5563 5558 5550 5545 5539 5535 5528 5522 5517 5512 5510 5506 5503 5501 5498 5497 5495 5494 5494 5494 5496 5496 5497 5498 5502 5502 5504 5506 5508 5513 5520 5525 5532 5538 5541 5547 5554
5631 5623 5615 5607 5600 5592 5584 5576 5569 5561 5553 5547 5541 5535 5529 5525 5522 5516 5511 5505 5503 5500 5498 5495 5491 5488 5486 5485 5483 5483 5484 5486 5486 5486 5488 5489 5490 5493 5497 5499 5503 5510 5516 5521 5526 5529 5536
5621 5613 5604 5597 5589 5581 5573 5566 5558 5551 5543 5535 5531 5525 5519 5515 5513 5508 5502 5497 5493 5490 5489 5486 5482 5481 5477 5473 5472 5472 5472 5473 5475 5476 5476 5474 5475 5478 5479 5482 5488 5496 5499 5503 5508 5519 5520
5609 5601 5593 5585 5578 5570 5562 5555 5548 5540 5532 5524 5519 5513 5508 5504 5504 5497 5492 5487 5481 5478 5475 5475 5472 5470 5467 5464 5461 5460 5458 5459 5461 5464 5463 5463 5462 5465 5466 5466 5474 5481 5483 5487 5491 5494 5500
5597 5590 5581 5573 5566 5559 5552 5544 5537 5529 5521 5512 5505 5501 5496 5489 5490 5485 5481 5473 5471 5464 5460 5459 5459 5455 5451 5449 5448 5445 5444 5445 5447 5450 5449 5451 5453 5452 5453 5455 5460 5462 5467 5468 5471 5475 5479